Temp
9 8 11 12 14 14 14 13 14 14 13 13 14 14 15 15 15 15 16 16 16 16 15 14 15 16 16 16 16 16 17 17 17 14 17 17 17 18 17 17 17 17 17 16
8 9 13 14 13 13 13 13 13 12 12 13 13 13 15 15 15 14 14 14 15 14 14 13 15 16 16 16 16 16 16 16 16 15 14 17 17 17 17 17 18 17 17 17
8 10 12 12 12 12 13 13 13 13 12 11 12 14 13 12 12 12 11 11 12 12 12 12 12 13 15 15 15 15 15 16 16 16 14 13 13 13 15 17 18 18 18 17
6 9 12 12 12 13 12 12 12 12 12 14 11 16 13 13 13 13 12 12 12 12 12 11 11 11 12 13 13 14 14 15 15 15 15 13 12 12 14 16 17 17 17 17
6 8 9 12 12 13 11 11 11 11 12 12 12 13 13 13 13 13 13 12 11 11 11 11 11 12 12 12 13 13 13 14 14 14 14 13 12 12 12 12 13 14 15 16
6 6 7 7 6 11 10 11 10 10 11 11 11 12 14 14 13 13 13 12 11 11 11 10 11 12 12 12 13 13 13 13 13 14 14 14 13 12 11 11 12 12 13 14
6 7 6 6 5 7 11 11 10 10 10 13 8 10 14 13 13 12 12 12 11 10 10 10 10 10 11 12 13 13 13 13 13 13 12 12 13 12 11 11 11 11 11 13
7 7 7 6 8 9 9 11 11 12 12 12 8 12 14 13 12 11 10 10 9 10 9 9 9 9 9 10 11 12 12 12 13 13 13 12 13 13 13 13 11 11 11 11
7 7 9 9 10 11 9 10 9 9 7 10 12 11 12 11 11 11 11 11 11 10 9 9 8 8 8 9 9 10 10 11 11 11 12 12 12 12 12 13 13 13 13 13
9 7 8 8 9 9 10 9 9 8 10 12 12 12 14 11 12 12 12 12 11 10 9 8 8 7 6 7 8 8 9 9 9 9 10 10 11 11 12 12 12 12 13 13
10 10 7 9 9 10 9 9 8 10 9 12 13 14 12 13 13 12 12 11 10 9 8 7 7 6 6 7 7 7 8 8 8 9 9 9 10 10 11 11 12 12 12 12
9 10 8 8 8 8 9 10 10 10 9 7 9 13 12 13 12 11 11 11 10 9 7 6 6 5 5 7 7 7 7 8 8 9 9 9 10 10 10 10 11 11 12 12
10 8 7 7 8 7 8 8 8 7 7 7 11 13 11 11 11 12 11 11 9 8 7 6 5 5 5 6 6 6 7 7 8 8 8 8 8 9 9 9 9 10 10 9
9 8 9 10 8 8 6 7 8 7 8 9 10 12 12 12 12 12 11 10 8 7 5 4 4 4 4 5 5 5 6 6 7 7 7 7 7 6 6 6 6 5 6 7
9 6 6 7 7 6 7 7 7 5 8 9 11 10 12 13 12 11 10 8 7 6 5 3 3 3 4 4 5 6 6 5 6 5 5 5 5 6 5 4 5 5 5 5
8 6 5 6 7 6 6 8 8 7 9 8 9 10 12 12 11 10 10 7 6 5 4 2 2 2 3 4 4 4 4 4 4 4 4 4 4 3 3 3 3 3 3 2
8 6 7 8 6 7 7 8 8 8 8 9 8 11 12 12 11 10 8 6 5 4 3 2 2 1 3 3 3 3 3 4 3 3 3 3 2 2 2 2 1 1 0 -0
8 8 7 7 7 8 9 8 9 9 9 9 9 10 11 10 9 7 6 5 5 3 2 2 2 2 2 1 2 3 2 2 2 1 1 1 1 1 0 0 0 -0 -1 -1
9 8 7 7 7 9 9 7 8 8 10 10 9 11 10 9 8 8 6 6 5 4 3 2 2 2 1 1 1 1 1 1 1 0 1 0 1 0 -0 -0 -1 -1 -1 -1
7 8 8 6 7 9 10 9 9 9 9 10 10 10 9 8 10 11 6 5 4 4 3 1 1 1 1 1 0 0 0 0 0 -0 -0 -0 -0 -0 -1 -1 -1 -1 -1 -1
7 7 7 8 7 9 10 9 9 8 9 9 9 9 8 9 9 7 6 5 4 4 3 1 0 0 0 0 -0 -0 -0 -0 -1 -1 -1 -1 -1 -1 -1 -1 -1 -1 -1 -1
8 8 7 7 7 7 8 9 9 9 9 9 8 8 7 7 6 6 6 4 4 4 3 2 1 0 0 0 -0 -0 -0 -1 -1 -1 -1 -1 -2 -2 -2 -1 -1 -1 -1 -1
8 9 9 9 9 9 8 9 8 7 7 7 7 7 7 6 6 5 4 4 4 4 3 2 2 1 1 1 0 0 0 -0 -0 -1 -1 -1 -1 -1 -1 -1 -1 -1 -1 -1
7 7 8 8 10 9 8 7 7 7 7 7 7 7 6 6 6 5 4 5 5 4 4 3 3 2 1 1 1 1 0 0 -0 -1 -1 -1 -1 -1 -1 -1 -1 -1 -1 -2
8 7 8 8 9 8 7 7 7 7 7 7 7 7 6 6 6 6 5 5 5 4 4 3 2 2 1 0 -0 -0 -1 -0 -0 -0 -0 -0 -0 -1 -1 -1 -1 -1 -1 -2
7 9 8 9 9 9 8 6 6 6 6 6 6 6 6 6 6 6 5 5 5 4 4 4 2 1 2 2 1 1 1 0 0 0 0 -0 -0 -1 -1 -1 -1 -2 -2 -2
Height
1477 1476 1471 1473 1477 1481 1479 1490 1491 1493 1499 1499 1498 1499 1499 1500 1499 1498 1498 1498 1498 1499 1500 1498 1498 1498 1498 1500 1501 1503 1504 1506 1509 1509 1509 1510 1511 1514 1514 1516 1517 1519 1520 1521
1480 1474 1472 1475 1481 1485 1485 1486 1490 1498 1501 1500 1499 1500 1495 1494 1494 1496 1496 1495 1495 1496 1496 1494 1492 1492 1492 1493 1494 1496 1497 1499 1501 1503 1502 1503 1504 1505 1507 1508 1509 1511 1513 1515
1472 1471 1473 1476 1481 1484 1487 1487 1490 1491 1499 1502 1500 1491 1493 1497 1497 1496 1495 1493 1494 1494 1493 1492 1490 1488 1488 1487 1487 1488 1489 1491 1493 1494 1496 1497 1498 1497 1498 1499 1501 1503 1504 1505
1479 1473 1470 1475 1478 1479 1488 1490 1491 1495 1494 1490 1500 1483 1491 1494 1495 1495 1494 1494 1494 1493 1493 1492 1490 1488 1487 1485 1484 1484 1483 1484 1486 1487 1487 1489 1490 1490 1490 1492 1493 1494 1495 1495
1475 1470 1473 1472 1475 1478 1486 1491 1493 1496 1495 1498 1497 1494 1489 1493 1495 1494 1494 1495 1494 1494 1492 1491 1489 1487 1486 1485 1483 1482 1481 1480 1480 1481 1481 1483 1484 1485 1486 1486 1486 1487 1487 1488
1473 1476 1477 1485 1488 1484 1491 1493 1499 1501 1500 1499 1496 1497 1484 1487 1490 1493 1494 1494 1493 1493 1492 1490 1487 1485 1484 1482 1481 1480 1479 1478 1477 1476 1475 1476 1477 1479 1480 1481 1481 1481 1480 1480
1479 1481 1484 1486 1492 1494 1487 1489 1500 1504 1503 1486 1506 1504 1478 1487 1491 1494 1494 1494 1493 1491 1489 1487 1486 1483 1481 1479 1478 1476 1476 1476 1475 1473 1472 1472 1471 1472 1473 1475 1476 1476 1474 1473
1476 1483 1486 1484 1484 1486 1491 1488 1484 1484 1488 1485 1508 1489 1477 1487 1492 1494 1494 1493 1491 1489 1487 1486 1484 1481 1478 1475 1473 1472 1471 1471 1469 1469 1469 1468 1467 1467 1467 1467 1468 1469 1469 1468
1478 1486 1486 1486 1484 1484 1492 1491 1495 1497 1508 1497 1482 1485 1486 1488 1491 1492 1491 1490 1490 1488 1486 1484 1482 1478 1475 1472 1470 1467 1466 1465 1464 1463 1464 1464 1464 1464 1464 1463 1462 1462 1461 1461
1473 1484 1487 1489 1487 1489 1486 1492 1494 1496 1492 1482 1480 1481 1468 1484 1487 1488 1487 1486 1487 1486 1484 1482 1479 1476 1475 1472 1469 1466 1464 1462 1460 1459 1459 1459 1459 1459 1459 1458 1458 1456 1455 1454
1469 1474 1492 1488 1487 1485 1492 1491 1495 1488 1492 1476 1471 1470 1476 1477 1481 1485 1484 1484 1483 1482 1480 1479 1477 1475 1472 1470 1468 1465 1462 1460 1459 1458 1457 1457 1456 1455 1454 1453 1452 1450 1449 1448
1472 1474 1483 1487 1491 1492 1489 1485 1486 1481 1492 1498 1490 1473 1478 1479 1482 1484 1483 1482 1482 1480 1479 1478 1475 1472 1470 1468 1467 1465 1461 1460 1458 1457 1456 1454 1452 1451 1449 1447 1446 1444 1442 1441
1473 1481 1490 1495 1494 1493 1490 1490 1490 1492 1497 1498 1479 1470 1479 1480 1481 1479 1480 1479 1479 1478 1476 1474 1471 1470 1468 1467 1465 1463 1461 1459 1456 1454 1452 1450 1448 1445 1442 1440 1439 1438 1436 1435
1471 1477 1475 1471 1480 1483 1490 1488 1489 1490 1490 1484 1480 1476 1476 1478 1478 1478 1478 1477 1477 1475 1472 1469 1469 1468 1466 1464 1464 1462 1457 1456 1454 1452 1448 1446 1444 1440 1437 1434 1433 1433 1433 1432
1472 1480 1483 1481 1482 1487 1484 1484 1488 1491 1485 1483 1478 1481 1474 1475 1475 1476 1475 1475 1474 1473 1471 1468 1466 1465 1463 1463 1461 1458 1457 1456 1453 1450 1447 1444 1441 1438 1435 1433 1432 1431 1431 1431
1475 1484 1486 1485 1485 1486 1487 1482 1483 1485 1483 1485 1482 1478 1472 1472 1474 1475 1474 1474 1473 1471 1468 1467 1465 1463 1462 1461 1459 1458 1457 1455 1452 1450 1447 1443 1440 1438 1435 1434 1433 1432 1431 1431
1474 1480 1481 1478 1486 1484 1478 1472 1475 1476 1478 1478 1480 1472 1472 1472 1473 1472 1471 1469 1470 1469 1466 1464 1462 1461 1461 1460 1459 1457 1455 1453 1451 1450 1447 1444 1440 1439 1436 1435 1434 1433 1432 1433
1475 1477 1481 1479 1483 1476 1465 1468 1468 1470 1472 1475 1473 1471 1471 1470 1470 1469 1467 1469 1467 1465 1462 1461 1461 1460 1460 1459 1457 1455 1454 1452 1452 1450 1447 1444 1441 1441 1440 1439 1438 1437 1437 1438
1473 1475 1481 1478 1477 1468 1462 1468 1468 1467 1465 1467 1469 1468 1468 1468 1467 1466 1466 1463 1464 1462 1460 1460 1460 1459 1458 1458 1455 1454 1453 1453 1452 1450 1447 1445 1443 1443 1443 1443 1443 1443 1444 1444
1476 1475 1477 1484 1479 1464 1460 1462 1463 1464 1467 1463 1465 1465 1466 1466 1462 1460 1462 1463 1462 1460 1459 1459 1459 1458 1457 1456 1455 1454 1453 1453 1451 1451 1449 1448 1447 1447 1447 1447 1448 1449 1450 1449
1475 1478 1476 1474 1475 1463 1461 1463 1464 1466 1469 1464 1464 1465 1465 1464 1463 1461 1461 1461 1461 1460 1459 1458 1457 1458 1457 1456 1455 1454 1454 1454 1454 1453 1453 1452 1452 1452 1452 1453 1454 1455 1455 1455
1467 1470 1473 1474 1475 1471 1461 1463 1464 1465 1463 1463 1463 1464 1464 1463 1461 1459 1459 1460 1460 1459 1458 1457 1457 1458 1457 1456 1456 1456 1455 1456 1456 1457 1456 1456 1457 1457 1457 1458 1458 1458 1458 1458
1467 1464 1463 1463 1460 1460 1461 1462 1464 1463 1463 1463 1463 1462 1461 1460 1459 1458 1458 1459 1459 1459 1458 1458 1458 1458 1458 1458 1458 1458 1457 1458 1459 1459 1460 1460 1461 1461 1461 1461 1461 1461 1461 1460
1464 1465 1464 1464 1455 1459 1461 1462 1462 1461 1461 1460 1460 1459 1458 1458 1457 1456 1456 1457 1457 1457 1457 1458 1459 1459 1459 1459 1460 1460 1460 1460 1461 1462 1462 1463 1463 1464 1464 1464 1463 1463 1462 1462
1458 1461 1459 1458 1457 1458 1458 1458 1458 1458 1458 1457 1457 1456 1455 1454 1453 1453 1453 1454 1455 1456 1457 1457 1458 1459 1459 1460 1461 1461 1461 1461 1463 1463 1464 1464 1465 1465 1465 1465 1464 1464 1463 1463
1455 1452 1453 1450 1452 1453 1455 1456 1456 1455 1455 1454 1453 1453 1452 1450 1450 1450 1450 1451 1452 1453 1454 1456 1457 1458 1458 1460 1460 1461 1462 1462 1463 1464 1464 1465 1466 1466 1466 1466 1465 1465 1464 1462
Wind_Speed
25 6 18 24 19 3 10 16 9 8 5 6 11 10 11 14 16 18 20 20 18 17 14 15 18 20 22 23 24 25 25 28 27 27 33 34 37 37 37 37 36 34 33 30
8 13 15 16 13 7 14 14 10 6 5 5 4 8 13 13 14 11 13 15 13 10 7 7 13 17 19 22 25 27 27 27 28 27 30 37 36 41 40 39 38 38 37 36
5 7 15 18 16 13 9 12 11 4 6 2 5 6 5 4 6 4 3 2 3 5 5 7 7 1 4 10 16 24 28 30 30 32 27 27 29 33 38 41 40 38 37 40
1 3 18 19 18 16 12 5 8 7 5 3 3 3 3 9 9 9 11 11 11 10 9 10 10 10 8 5 3 5 14 22 30 32 33 29 29 32 38 43 43 42 43 44
4 6 15 20 20 15 6 9 8 5 3 2 4 4 7 10 8 7 9 9 8 8 8 9 9 9 8 6 5 4 3 6 13 22 31 30 26 27 27 27 31 33 39 43
7 6 4 2 7 6 15 10 8 4 1 3 3 4 7 9 10 7 7 7 6 7 9 9 9 8 7 7 7 7 6 6 7 9 15 22 30 26 26 26 27 30 32 36
5 4 6 5 9 3 8 12 4 3 4 2 2 4 3 9 10 8 5 6 5 7 10 12 13 14 13 13 12 12 13 12 12 11 11 12 18 24 23 24 24 24 27 33
2 4 2 3 2 9 10 3 2 4 4 3 2 5 3 9 9 4 3 2 3 5 9 10 13 16 17 17 16 16 17 17 17 17 15 14 14 16 20 22 23 22 23 26
4 4 2 3 4 6 4 4 2 4 2 1 3 3 4 5 9 6 3 3 5 5 7 9 10 13 15 16 15 14 14 16 17 19 19 18 16 16 18 19 21 22 23 25
3 6 3 4 1 11 1 8 2 0 4 4 4 3 3 14 13 3 5 6 7 5 9 9 9 10 11 12 12 11 10 10 11 12 13 15 16 16 17 18 19 21 23 25
5 3 3 2 1 7 4 3 2 2 1 2 1 3 0 15 12 2 7 7 8 8 9 10 9 9 9 8 10 10 7 7 6 6 6 7 8 11 14 17 19 21 24 26
1 4 4 2 2 2 1 2 4 2 4 0 3 3 3 7 5 5 8 7 6 6 8 8 8 9 7 7 7 7 8 9 10 11 12 14 16 18 20 21 23 23 25 27
6 4 5 5 3 1 4 4 2 5 2 5 3 4 3 5 3 6 8 9 6 7 8 8 7 6 5 6 6 7 9 11 13 15 15 16 17 19 22 24 26 23 23 24
3 2 1 2 3 3 4 8 9 4 3 4 4 0 6 4 5 8 9 7 8 7 8 9 7 4 3 4 7 9 13 14 14 15 15 14 14 16 20 19 18 18 18 16
1 3 2 1 3 2 1 5 11 7 4 5 2 6 5 10 8 10 11 6 6 6 7 7 7 4 3 4 6 11 12 12 12 14 12 11 10 11 11 10 10 9 9 10
2 3 2 1 1 4 5 8 10 14 14 13 12 17 13 5 6 9 6 5 4 6 7 5 4 2 2 4 8 9 10 10 10 12 14 11 11 10 8 7 6 6 5 5
3 5 2 1 0 3 7 15 16 9 9 13 10 8 4 9 8 7 4 2 4 5 5 4 4 3 3 5 7 8 8 9 9 10 11 11 11 10 8 7 5 4 5 6
6 5 1 0 2 4 3 2 5 17 10 13 8 11 12 10 9 3 2 2 3 6 3 4 4 3 4 5 5 6 6 7 7 7 8 8 10 11 10 9 7 7 8 11
2 4 2 2 3 5 2 4 6 8 7 16 14 12 10 6 5 6 7 2 3 4 4 3 3 2 2 4 4 4 5 5 5 6 7 10 11 11 12 12 13 15 15 15
4 3 2 2 3 3 3 3 4 4 3 4 9 7 5 3 3 2 6 3 2 5 5 2 3 2 2 2 2 3 4 6 9 10 11 12 13 13 15 15 14 14 14 14
4 2 7 6 4 5 5 4 1 2 3 1 5 5 4 4 3 3 4 4 1 3 3 1 1 1 1 2 4 6 8 11 12 12 14 15 15 16 16 16 15 13 12 11
8 5 4 4 4 6 3 4 3 4 5 6 4 4 6 8 7 7 7 6 3 2 4 3 3 4 6 7 9 12 14 14 15 15 16 16 15 14 14 13 13 12 11 10
5 4 2 5 3 1 2 2 5 2 1 3 6 7 8 8 6 8 11 9 5 3 7 7 7 9 11 11 12 14 17 15 14 14 14 14 13 13 13 11 10 9 8 7
5 7 3 2 5 10 8 1 3 1 7 10 8 8 8 7 6 7 11 11 9 7 9 10 10 12 12 12 13 14 14 14 13 13 14 13 12 11 10 8 7 6 6 5
2 9 8 8 9 7 3 8 2 8 8 8 7 8 8 9 8 7 12 14 13 12 12 12 11 11 11 12 12 12 13 14 13 12 12 11 9 8 6 5 4 4 3 2
8 8 6 5 6 4 5 4 9 10 8 8 10 10 10 11 9 9 13 16 17 16 16 16 15 14 13 13 13 13 13 13 10 10 10 8 7 5 4 3 2 1 2 3
Wind_Direction
192 211 186 187 194 313 170 190 189 206 142 208 230 244 251 258 263 262 265 268 268 266 268 269 264 258 256 253 250 249 246 246 245 238 246 248 250 251 249 246 248 250 252 248
166 209 204 182 179 161 175 179 188 123 156 222 199 254 252 259 265 279 274 266 270 275 275 281 265 259 257 256 250 246 245 243 242 238 245 247 247 247 248 248 247 247 249 252
222 180 183 179 181 184 184 187 168 157 149 120 282 241 171 103 88 84 53 172 102 85 64 48 46 39 248 259 258 246 240 238 238 240 241 241 243 246 249 249 248 248 246 248
317 208 175 183 182 176 171 157 142 133 183 216 304 175 115 135 107 83 83 86 87 77 64 54 53 54 58 47 1 268 252 248 244 241 240 238 238 242 249 253 254 250 248 249
201 131 187 184 187 188 122 142 117 111 110 304 180 238 122 161 130 90 75 78 77 57 42 34 35 37 27 12 8 360 327 270 257 252 249 244 240 244 250 253 256 258 259 257
57 99 46 83 41 139 135 114 77 72 99 233 159 253 163 172 149 105 82 71 68 41 27 16 7 356 342 334 322 313 312 303 284 264 254 249 246 247 249 252 252 255 259 263
89 56 90 103 78 16 141 151 135 177 197 245 124 209 52 145 147 94 62 51 44 26 14 7 358 344 327 315 307 298 290 286 290 293 292 277 257 249 250 250 254 257 260 262
85 112 35 297 127 151 154 227 216 181 189 139 151 228 131 140 164 178 0 342 354 15 5 359 354 349 340 327 314 298 288 281 275 272 275 280 275 266 261 262 259 258 258 261
138 84 78 96 130 145 171 211 42 105 78 246 185 219 235 196 172 199 9 31 28 11 360 353 349 346 340 338 334 320 302 288 284 273 267 268 272 273 272 267 266 267 267 267
129 110 49 155 149 52 212 131 150 336 179 226 183 242 160 167 173 175 13 15 3 351 352 349 347 346 344 345 353 350 342 327 304 290 281 275 274 273 270 269 268 266 266 265
122 90 128 174 188 168 149 185 63 94 321 268 188 131 11 166 171 88 346 349 349 350 348 347 341 340 345 343 357 4 20 27 14 356 337 314 302 297 295 289 281 277 275 274
53 101 136 92 39 319 290 199 198 218 169 15 332 100 136 168 178 243 327 346 347 350 347 343 337 344 353 348 348 354 4 358 353 340 325 314 301 296 293 294 298 289 281 278
168 137 140 159 184 193 219 197 147 94 71 196 223 120 135 160 219 324 329 332 341 341 345 352 353 357 6 3 5 6 1 349 340 328 321 312 306 298 293 292 290 291 286 283
100 101 325 133 92 115 190 190 188 169 181 159 233 82 180 207 308 328 331 332 333 341 350 353 354 356 346 9 1 3 5 349 341 331 320 315 315 318 313 305 298 293 291 281
67 104 77 63 82 124 229 203 195 206 188 209 115 230 274 302 314 320 317 319 326 339 346 352 346 359 340 341 353 357 352 349 351 354 339 332 332 322 315 315 300 288 279 275
30 108 95 100 173 220 250 232 216 222 229 247 260 283 288 309 329 305 297 301 332 343 342 339 348 9 342 353 2 358 353 351 2 6 358 356 353 349 348 348 338 324 314 292
127 140 156 171 342 270 262 230 208 205 211 223 223 234 284 301 319 317 314 347 335 323 326 333 356 4 356 355 3 353 348 356 355 359 8 358 24 13 17 19 18 55 90 108
147 115 123 174 214 234 76 121 224 214 212 217 241 259 283 307 303 270 226 247 329 329 329 336 333 335 350 4 352 346 359 3 358 1 25 21 37 35 47 53 63 80 96 106
185 145 126 251 239 311 181 174 153 176 216 220 231 259 289 304 289 233 218 281 327 343 338 309 301 311 330 333 348 3 14 23 41 56 60 60 59 69 80 87 90 97 105 113
90 102 224 172 271 248 58 83 201 229 145 170 204 241 277 285 247 143 210 248 343 22 355 294 273 281 323 346 32 40 60 79 88 85 82 82 85 87 92 94 96 105 111 112
167 170 219 227 259 274 246 251 121 204 105 144 221 259 253 252 287 211 231 236 88 35 16 44 161 230 97 88 92 102 101 100 99 98 98 99 99 97 95 98 102 106 107 104
192 190 191 202 221 254 154 141 197 345 304 280 273 277 269 277 279 247 221 215 172 62 75 90 135 138 121 112 118 115 113 106 105 107 106 104 102 103 103 104 105 103 98 94
209 216 210 223 228 66 184 76 326 11 56 6 312 303 301 293 284 240 215 205 185 141 112 114 133 129 119 121 130 125 116 117 116 115 113 111 113 113 108 105 101 97 90 80
218 193 241 244 216 234 248 138 167 285 321 324 307 293 300 293 293 243 216 210 198 174 151 144 146 135 129 128 128 126 126 128 131 131 127 124 122 119 114 107 98 88 78 62
196 163 217 245 258 271 278 176 282 326 328 312 298 294 297 299 298 263 227 217 206 192 177 168 166 161 154 151 148 144 147 141 143 138 134 131 126 117 106 95 86 78 54 24
202 214 209 242 216 232 171 213 310 311 322 324 303 292 291 294 289 266 230 222 215 203 193 186 184 181 173 166 165 160 154 152 154 148 144 142 136 126 114 98 78 62 3 345